Location: El Portezuelo
(28.4984°N, 16.3589°W)
Time: 17:16:49
(UTC+00:00)

CZ-4B R/B - Pass Details

Date: 20 January 2020
Orbit: 808 x 882 km, 99.1° (Epoch: 19 February)

Event Time Altitude Azimuth Distance (km) Brightness Sun altitude
Rises 06:25:42 0° 17° (NNE) 3,435 6.4 -20.2°
Reaches altitude 10° 06:28:08 10° 20° (NNE) 2,485 5.7 -19.7°
Maximum altitude 06:33:36 64° 102° (ESE) 929 3.6 -18.5°
Drops below altitude 10° 06:38:55 10° 183° (S) 2,425 5.7 -17.4°
Sets 06:41:15 0° 186° (S) 3,345 6.4 -16.9°
